RRR6205 LXGB-EGVN

Flight info

Callsign RRR6205
Flight time 3h 25m
Altitude 35000
Route UNBUT DCT ODLUK DCT SOVIS T100 ORTOP DCT LATRU DCT UNPOT DCT XERES DCT ADVAT/M074F350 T290 GELPO DCT JABEX DCT GAPLI/N0423F350 DCT TACQI DCT KITFE DCT BUSVE
Aircraft C17/H-SDE1E2FGHIJ5RTUWXY/LB1D1

Departure

Time 2026-05-05 15:14
Airport Gibraltar Airport (LXGB)

Arrival

Time 2026-05-05 18:39
Airport RAF Brize Norton (EGVN)
Time Latitude Longitude Altitude Speed Heading
2026-05-05 14:56 36.14969 -5.34767 17 ft 0 kts 110°
2026-05-05 15:07 36.14968 -5.34766 15 ft 1 kts 110°
2026-05-05 15:07 36.14965 -5.34757 15 ft 2 kts 110°
2026-05-05 15:08 36.14963 -5.34737 16 ft 5 kts 87°
2026-05-05 15:08 36.14987 -5.34693 15 ft 7 kts 49°
2026-05-05 15:08 36.15030 -5.34646 16 ft 9 kts 26°
2026-05-05 15:08 36.15097 -5.34638 17 ft 11 kts 11°
2026-05-05 15:09 36.15131 -5.34544 13 ft 17 kts 86°
2026-05-05 15:09 36.15137 -5.34390 12 ft 19 kts 88°
2026-05-05 15:09 36.15143 -5.34224 14 ft 20 kts 88°
2026-05-05 15:09 36.15174 -5.34079 13 ft 16 kts 60°
2026-05-05 15:10 36.15145 -5.34039 15 ft 3 kts 247°
2026-05-05 15:10 36.15148 -5.34085 13 ft 1 kts 267°
2026-05-05 15:13 36.15147 -5.34111 13 ft 20 kts 267°
2026-05-05 15:13 36.15126 -5.34722 16 ft 122 kts 267°
2026-05-05 15:13 36.15078 -5.35999 390 ft 165 kts 264°
2026-05-05 15:14 36.14894 -5.37426 1053 ft 169 kts 246°
2026-05-05 15:14 36.13901 -5.38258 1707 ft 196 kts 199°
2026-05-05 15:14 36.12449 -5.38044 1998 ft 224 kts 167°
2026-05-05 15:14 36.10954 -5.37504 2552 ft 222 kts 170°
2026-05-05 15:15 36.09525 -5.37096 3111 ft 198 kts 173°
2026-05-05 15:15 36.08257 -5.36815 4319 ft 197 kts 174°
2026-05-05 15:15 36.06831 -5.36478 5204 ft 204 kts 173°
2026-05-05 15:15 36.05308 -5.36107 5305 ft 229 kts 173°
2026-05-05 15:16 36.03844 -5.35871 5914 ft 198 kts 189°
2026-05-05 15:16 36.02693 -5.36714 6941 ft 200 kts 236°
2026-05-05 15:16 36.02169 -5.38329 7517 ft 201 kts 258°
2026-05-05 15:16 36.01807 -5.40004 7996 ft 207 kts 254°
2026-05-05 15:17 36.01202 -5.41660 8389 ft 219 kts 244°
2026-05-05 15:17 36.00446 -5.43321 8395 ft 224 kts 242°
2026-05-05 15:17 35.99629 -5.45118 8240 ft 246 kts 243°
2026-05-05 15:17 35.98821 -5.46922 8460 ft 237 kts 243°
2026-05-05 15:18 35.98026 -5.48709 8481 ft 237 kts 243°
2026-05-05 15:18 35.97243 -5.50463 8706 ft 229 kts 244°
2026-05-05 15:18 35.96468 -5.52198 9107 ft 237 kts 244°
2026-05-05 15:18 35.95674 -5.53983 9507 ft 239 kts 243°
2026-05-05 15:19 35.94870 -5.55781 9921 ft 237 kts 243°
2026-05-05 15:19 35.94062 -5.57590 10279 ft 244 kts 243°
2026-05-05 15:19 35.93238 -5.59432 10670 ft 242 kts 243°
2026-05-05 15:19 35.92432 -5.61233 11036 ft 242 kts 243°
2026-05-05 15:20 35.91613 -5.63064 11430 ft 246 kts 243°
2026-05-05 15:20 35.90888 -5.65055 11831 ft 258 kts 258°
2026-05-05 15:20 35.90831 -5.67245 12235 ft 257 kts 278°
2026-05-05 15:20 35.91426 -5.69300 12646 ft 259 kts 298°
2026-05-05 15:21 35.92428 -5.71156 13051 ft 263 kts 301°
2026-05-05 15:21 35.93468 -5.73058 13481 ft 268 kts 301°
2026-05-05 15:21 35.94500 -5.74955 13880 ft 266 kts 301°
2026-05-05 15:21 35.95451 -5.76926 14246 ft 267 kts 289°
2026-05-05 15:22 35.95775 -5.79170 14622 ft 267 kts 268°
2026-05-05 15:22 35.95646 -5.80685 14884 ft 267 kts 262°
2026-05-05 15:22 35.95351 -5.82955 15270 ft 269 kts 261°
2026-05-05 15:22 35.95060 -5.85252 15655 ft 272 kts 262°
2026-05-05 15:23 35.94760 -5.87625 16061 ft 297 kts 262°
2026-05-05 15:23 35.94424 -5.90301 16507 ft 324 kts 262°
2026-05-05 15:23 35.94079 -5.93036 16927 ft 322 kts 261°
2026-05-05 15:23 35.93751 -5.95811 17350 ft 329 kts 265°
2026-05-05 15:24 35.93681 -5.98645 17779 ft 332 kts 269°
2026-05-05 15:24 35.93655 -6.01499 18183 ft 334 kts 269°
2026-05-05 15:24 35.93608 -6.04359 18557 ft 340 kts 268°
2026-05-05 15:24 35.93547 -6.07269 18921 ft 337 kts 268°
2026-05-05 15:25 35.93493 -6.10161 19283 ft 339 kts 268°
2026-05-05 15:25 35.93442 -6.13095 19661 ft 343 kts 268°
2026-05-05 15:25 35.93389 -6.16032 20026 ft 341 kts 268°
2026-05-05 15:25 35.93333 -6.18963 20414 ft 342 kts 268°
2026-05-05 15:26 35.93274 -6.21908 20799 ft 345 kts 268°
2026-05-05 15:26 35.93214 -6.24875 21189 ft 346 kts 268°
2026-05-05 15:26 35.93154 -6.27840 21583 ft 346 kts 268°
2026-05-05 15:26 35.93093 -6.30818 21982 ft 349 kts 268°
2026-05-05 15:27 35.93031 -6.33817 22389 ft 351 kts 268°
2026-05-05 15:27 35.92967 -6.36826 22800 ft 351 kts 268°
2026-05-05 15:27 35.92903 -6.39840 23216 ft 352 kts 268°
2026-05-05 15:27 35.92838 -6.42880 23635 ft 355 kts 267°
2026-05-05 15:28 35.92772 -6.45893 23983 ft 357 kts 267°
2026-05-05 15:28 35.92704 -6.48962 24346 ft 367 kts 267°
2026-05-05 15:28 35.92629 -6.52267 24738 ft 397 kts 267°
2026-05-05 15:28 35.92553 -6.55689 25128 ft 400 kts 267°
2026-05-05 15:29 35.92476 -6.59141 25506 ft 405 kts 267°
2026-05-05 15:29 35.92394 -6.62646 25888 ft 411 kts 267°
2026-05-05 15:29 35.92312 -6.66168 26266 ft 410 kts 267°
2026-05-05 15:29 35.92273 -6.69661 26645 ft 413 kts 271°
2026-05-05 15:30 35.92709 -6.73190 27043 ft 419 kts 279°
2026-05-05 15:30 35.93277 -6.76730 27447 ft 421 kts 278°
2026-05-05 15:30 35.93830 -6.80281 27850 ft 422 kts 278°
2026-05-05 15:30 35.94376 -6.83857 28259 ft 425 kts 278°
2026-05-05 15:31 35.94931 -6.87457 28688 ft 429 kts 278°
2026-05-05 15:31 35.95493 -6.91078 29100 ft 430 kts 278°
2026-05-05 15:31 35.96053 -6.94717 29533 ft 432 kts 278°
2026-05-05 15:31 35.96606 -6.98333 29957 ft 436 kts 278°
2026-05-05 15:32 35.97171 -7.02023 30353 ft 438 kts 278°
2026-05-05 15:32 35.97737 -7.05723 30728 ft 439 kts 278°
2026-05-05 15:32 35.98304 -7.09440 31107 ft 442 kts 278°
2026-05-05 15:32 35.98875 -7.13200 31505 ft 446 kts 278°
2026-05-05 15:33 35.99449 -7.16972 31891 ft 447 kts 278°
2026-05-05 15:33 36.00023 -7.20764 32294 ft 450 kts 278°
2026-05-05 15:33 36.00599 -7.24581 32688 ft 455 kts 278°
2026-05-05 15:33 36.01181 -7.28444 33086 ft 459 kts 278°
2026-05-05 15:34 36.01766 -7.32316 33513 ft 459 kts 278°
2026-05-05 15:34 36.02354 -7.36207 33943 ft 463 kts 279°
2026-05-05 15:34 36.03323 -7.40029 34345 ft 470 kts 290°
2026-05-05 15:34 36.04710 -7.43645 34730 ft 471 kts 292°
2026-05-05 15:35 36.06148 -7.47320 34982 ft 480 kts 292°
2026-05-05 15:35 36.09027 -7.54773 35050 ft 476 kts 292°
2026-05-05 15:36 36.11872 -7.62168 35058 ft 477 kts 292°
2026-05-05 15:36 36.14727 -7.69591 35060 ft 477 kts 292°
2026-05-05 15:37 36.17549 -7.76954 35062 ft 477 kts 292°
2026-05-05 15:37 36.20393 -7.84385 35060 ft 477 kts 292°
2026-05-05 15:38 36.23227 -7.91812 35062 ft 476 kts 292°
2026-05-05 15:38 36.26051 -7.99228 35065 ft 472 kts 292°
2026-05-05 15:38 36.27413 -8.02793 35045 ft 440 kts 291°
2026-05-05 15:39 36.28661 -8.06072 35044 ft 412 kts 291°
2026-05-05 15:39 36.29838 -8.09184 35041 ft 386 kts 291°
2026-05-05 15:39 36.30959 -8.12152 35047 ft 376 kts 291°
2026-05-05 15:40 36.33222 -8.18156 35071 ft 391 kts 291°
2026-05-05 15:40 36.35527 -8.24237 35071 ft 387 kts 291°
2026-05-05 15:41 36.37810 -8.30305 35067 ft 389 kts 291°
2026-05-05 15:41 36.40105 -8.36401 35070 ft 386 kts 291°
2026-05-05 15:42 36.42320 -8.42299 35062 ft 378 kts 291°
2026-05-05 15:42 36.44559 -8.48279 35076 ft 383 kts 291°
2026-05-05 15:43 36.46789 -8.54233 35072 ft 376 kts 291°
2026-05-05 15:43 36.49001 -8.60164 35074 ft 381 kts 291°
2026-05-05 15:44 36.51226 -8.66130 35082 ft 379 kts 291°
2026-05-05 15:44 36.53435 -8.72070 35079 ft 379 kts 291°
2026-05-05 15:45 36.55651 -8.78041 35081 ft 380 kts 291°
2026-05-05 15:45 36.57858 -8.83998 35083 ft 378 kts 291°
2026-05-05 15:46 36.60061 -8.89955 35087 ft 380 kts 291°
2026-05-05 15:46 36.62267 -8.95929 35091 ft 379 kts 291°
2026-05-05 15:47 36.64449 -9.01854 35089 ft 379 kts 291°
2026-05-05 15:47 36.66652 -9.07847 35081 ft 379 kts 291°
2026-05-05 15:48 36.68843 -9.13815 35091 ft 378 kts 291°
2026-05-05 15:48 36.71031 -9.19789 35088 ft 380 kts 291°
2026-05-05 15:49 36.73220 -9.25777 35101 ft 378 kts 291°
2026-05-05 15:49 36.75396 -9.31742 35097 ft 379 kts 291°
2026-05-05 15:50 36.77563 -9.37691 35090 ft 379 kts 291°
2026-05-05 15:50 36.79741 -9.43684 35099 ft 378 kts 291°
2026-05-05 15:51 36.81913 -9.49676 35093 ft 380 kts 291°
2026-05-05 15:51 36.84097 -9.55706 35102 ft 380 kts 291°
2026-05-05 15:52 36.86253 -9.61674 35111 ft 380 kts 291°
2026-05-05 15:52 36.88433 -9.67717 35109 ft 381 kts 291°
2026-05-05 15:53 36.90602 -9.73744 35116 ft 379 kts 291°
2026-05-05 15:53 36.92768 -9.79778 35117 ft 382 kts 291°
2026-05-05 15:54 36.94940 -9.85833 35123 ft 380 kts 291°
2026-05-05 15:54 36.97099 -9.91867 35118 ft 381 kts 291°
2026-05-05 15:54 36.98438 -9.94747 35117 ft 387 kts 304°
2026-05-05 15:55 37.00346 -9.97153 35120 ft 394 kts 318°
2026-05-05 15:55 37.02725 -9.98919 35125 ft 403 kts 332°
2026-05-05 15:55 37.05446 -9.99880 35140 ft 414 kts 347°
2026-05-05 15:56 37.11291 -10.00022 35123 ft 421 kts 355°
2026-05-05 15:56 37.17094 -9.99986 35119 ft 418 kts 354°
2026-05-05 15:57 37.22928 -10.00007 35130 ft 420 kts 354°
2026-05-05 15:57 37.28771 -9.99997 35121 ft 419 kts 354°
2026-05-05 15:58 37.34592 -10.00000 35118 ft 416 kts 353°
2026-05-05 15:58 37.40386 -10.00002 35117 ft 418 kts 353°
2026-05-05 15:59 37.46217 -9.99999 35122 ft 418 kts 354°
2026-05-05 15:59 37.52016 -10.00000 35117 ft 417 kts 353°
2026-05-05 16:00 37.57852 -10.00003 35120 ft 422 kts 353°
2026-05-05 16:00 37.63705 -9.99997 35121 ft 419 kts 353°
2026-05-05 16:01 37.69537 -10.00001 35119 ft 420 kts 353°
2026-05-05 16:01 37.75385 -9.99999 35122 ft 420 kts 353°
2026-05-05 16:02 37.81230 -10.00000 35108 ft 419 kts 353°
2026-05-05 16:02 37.87071 -10.00001 35110 ft 420 kts 353°
2026-05-05 16:03 37.92919 -9.99999 35108 ft 420 kts 353°
2026-05-05 16:03 37.98761 -10.00000 35113 ft 419 kts 353°
2026-05-05 16:04 38.04568 -10.00001 35107 ft 420 kts 353°
2026-05-05 16:04 38.10422 -9.99999 35115 ft 419 kts 353°
2026-05-05 16:05 38.16253 -10.00000 35111 ft 420 kts 353°
2026-05-05 16:05 38.22105 -10.00049 35113 ft 419 kts 352°
2026-05-05 16:06 38.27930 -10.00176 35114 ft 417 kts 352°
2026-05-05 16:06 38.33739 -10.00262 35114 ft 419 kts 352°
2026-05-05 16:07 38.39567 -10.00363 35114 ft 418 kts 352°
2026-05-05 16:07 38.45337 -10.00460 35115 ft 417 kts 352°
2026-05-05 16:08 38.51156 -10.00558 35121 ft 417 kts 352°
2026-05-05 16:08 38.55995 -10.00640 35116 ft 415 kts 352°
2026-05-05 16:09 38.61763 -10.00739 35116 ft 418 kts 352°
2026-05-05 16:09 38.67572 -10.00835 35117 ft 416 kts 352°
2026-05-05 16:10 38.73373 -10.00935 35116 ft 417 kts 351°
2026-05-05 16:10 38.79157 -10.01033 35115 ft 415 kts 351°
2026-05-05 16:11 38.84949 -10.01132 35113 ft 416 kts 351°
2026-05-05 16:12 38.96499 -10.01329 35111 ft 415 kts 352°
2026-05-05 16:13 39.10943 -10.01575 35115 ft 415 kts 352°
2026-05-05 16:13 39.16711 -10.01677 35115 ft 415 kts 352°
2026-05-05 16:14 39.28228 -10.01876 35112 ft 414 kts 352°
2026-05-05 16:15 39.39727 -10.02074 35118 ft 413 kts 353°
2026-05-05 16:16 39.51197 -10.02274 35122 ft 413 kts 353°
2026-05-05 16:17 39.59813 -10.02422 35139 ft 411 kts 353°
2026-05-05 16:18 39.68404 -10.02572 35108 ft 411 kts 353°
2026-05-05 16:19 39.76998 -10.02723 35108 ft 412 kts 353°
2026-05-05 16:19 39.85542 -10.02871 35114 ft 410 kts 353°
2026-05-05 16:20 39.96982 -10.03074 35115 ft 411 kts 353°
2026-05-05 16:22 40.11234 -10.03324 35116 ft 408 kts 353°
2026-05-05 16:23 40.22587 -10.03527 35115 ft 410 kts 353°
2026-05-05 16:23 40.31123 -10.03678 35112 ft 409 kts 353°
2026-05-05 16:24 40.36822 -10.03780 35118 ft 410 kts 353°
2026-05-05 16:25 40.45358 -10.03932 35112 ft 409 kts 353°
2026-05-05 16:25 40.53895 -10.04083 35110 ft 407 kts 353°
2026-05-05 16:26 40.65242 -10.04288 35115 ft 409 kts 353°
2026-05-05 16:27 40.70919 -10.04390 35111 ft 408 kts 354°
2026-05-05 16:27 40.76564 -10.04493 35112 ft 409 kts 354°
2026-05-05 16:28 40.82255 -10.04595 35115 ft 408 kts 354°
2026-05-05 16:28 40.87933 -10.04698 35111 ft 408 kts 354°
2026-05-05 16:29 40.93611 -10.04801 35113 ft 408 kts 354°
2026-05-05 16:29 40.99271 -10.04902 35108 ft 405 kts 354°
2026-05-05 16:30 41.04931 -10.05006 35109 ft 408 kts 354°
2026-05-05 16:30 41.10609 -10.05109 35108 ft 406 kts 354°
2026-05-05 16:31 41.16259 -10.05212 35105 ft 405 kts 354°
2026-05-05 16:31 41.21885 -10.05315 35108 ft 404 kts 354°
2026-05-05 16:32 41.27490 -10.05418 35104 ft 406 kts 354°
2026-05-05 16:32 41.33133 -10.05521 35101 ft 405 kts 354°
2026-05-05 16:33 41.38736 -10.05624 35109 ft 402 kts 354°
2026-05-05 16:33 41.44345 -10.05728 35116 ft 404 kts 354°
2026-05-05 16:34 41.49966 -10.05830 35111 ft 403 kts 354°
2026-05-05 16:34 41.55574 -10.05934 35119 ft 403 kts 354°
2026-05-05 16:35 41.61162 -10.06037 35109 ft 400 kts 354°
2026-05-05 16:35 41.66737 -10.06142 35115 ft 402 kts 354°
2026-05-05 16:36 41.72334 -10.06244 35109 ft 402 kts 354°
2026-05-05 16:36 41.77868 -10.06347 35109 ft 400 kts 354°
2026-05-05 16:37 41.83436 -10.06451 35108 ft 399 kts 354°
2026-05-05 16:37 41.89014 -10.06556 35109 ft 401 kts 354°
2026-05-05 16:38 41.94594 -10.06659 35108 ft 400 kts 354°
2026-05-05 16:38 42.00151 -10.06763 35106 ft 398 kts 354°
2026-05-05 16:39 42.05691 -10.06209 35107 ft 403 kts
2026-05-05 16:39 42.11264 -10.05087 35106 ft 405 kts
2026-05-05 16:40 42.16794 -10.04050 35100 ft 403 kts
2026-05-05 16:40 42.22347 -10.02973 35107 ft 403 kts
2026-05-05 16:41 42.27886 -10.01907 35104 ft 402 kts
2026-05-05 16:41 42.33437 -10.00836 35108 ft 404 kts
2026-05-05 16:42 42.38992 -9.99760 35108 ft 402 kts
2026-05-05 16:42 42.44533 -9.98687 35104 ft 402 kts
2026-05-05 16:43 42.50079 -9.97610 35104 ft 404 kts
2026-05-05 16:43 42.53157 -9.97011 35100 ft 403 kts
2026-05-05 16:44 42.57740 -9.96120 35100 ft 403 kts
2026-05-05 16:45 42.63262 -9.95043 35095 ft 403 kts
2026-05-05 16:45 42.68820 -9.93958 35094 ft 403 kts
2026-05-05 16:46 42.74376 -9.92871 35095 ft 404 kts
2026-05-05 16:46 42.79941 -9.91779 35106 ft 403 kts
2026-05-05 16:47 42.85481 -9.90691 35091 ft 401 kts
2026-05-05 16:47 42.91020 -9.89603 35092 ft 403 kts
2026-05-05 16:48 42.96582 -9.88505 35091 ft 402 kts
2026-05-05 16:48 43.02121 -9.87412 35093 ft 402 kts
2026-05-05 16:49 43.07603 -9.86328 35096 ft 400 kts
2026-05-05 16:49 43.13124 -9.85235 35096 ft 402 kts
2026-05-05 16:50 43.18654 -9.84135 35099 ft 401 kts
2026-05-05 16:50 43.24167 -9.83040 35087 ft 398 kts
2026-05-05 16:51 43.29616 -9.81953 35085 ft 396 kts
2026-05-05 16:51 43.35094 -9.80861 35088 ft 398 kts
2026-05-05 16:52 43.40530 -9.79773 35080 ft 396 kts
2026-05-05 16:52 43.45995 -9.78679 35090 ft 396 kts
2026-05-05 16:53 43.51450 -9.77583 35094 ft 395 kts
2026-05-05 16:53 43.56896 -9.76489 35095 ft 397 kts
2026-05-05 16:54 43.62360 -9.75388 35100 ft 396 kts
2026-05-05 16:54 43.67780 -9.74293 35089 ft 393 kts
2026-05-05 16:55 43.73180 -9.73203 35089 ft 396 kts
2026-05-05 16:55 43.78616 -9.72101 35087 ft 394 kts
2026-05-05 16:56 43.84043 -9.71000 35095 ft 395 kts
2026-05-05 16:56 43.88558 -9.70082 35095 ft 394 kts
2026-05-05 16:57 43.93974 -9.68979 35092 ft 394 kts
2026-05-05 16:57 43.99410 -9.67871 35090 ft 395 kts
2026-05-05 16:58 44.04840 -9.66760 35081 ft 392 kts
2026-05-05 16:58 44.10236 -9.65656 35078 ft 393 kts
2026-05-05 16:59 44.15660 -9.64543 35082 ft 394 kts
2026-05-05 16:59 44.21065 -9.63433 35094 ft 392 kts
2026-05-05 17:00 44.26445 -9.62326 35084 ft 393 kts
2026-05-05 17:00 44.31840 -9.61211 35083 ft 391 kts
2026-05-05 17:01 44.37232 -9.60099 35091 ft 393 kts
2026-05-05 17:01 44.42645 -9.58977 35093 ft 392 kts
2026-05-05 17:02 44.48007 -9.57865 35086 ft 392 kts
2026-05-05 17:02 44.53404 -9.56744 35092 ft 393 kts
2026-05-05 17:03 44.58808 -9.55619 35093 ft 391 kts
2026-05-05 17:03 44.64197 -9.54495 35089 ft 391 kts
2026-05-05 17:04 44.69577 -9.53370 35093 ft 391 kts
2026-05-05 17:04 44.74963 -9.52242 35091 ft 392 kts
2026-05-05 17:05 44.80341 -9.51114 35082 ft 387 kts
2026-05-05 17:05 44.85647 -9.50000 35077 ft 387 kts
2026-05-05 17:06 44.90956 -9.48881 35082 ft 388 kts
2026-05-05 17:06 44.96273 -9.47760 35078 ft 386 kts
2026-05-05 17:07 45.01620 -9.46951 35089 ft 384 kts 358°
2026-05-05 17:07 45.06965 -9.47046 35089 ft 383 kts 358°
2026-05-05 17:08 45.12312 -9.47071 35084 ft 385 kts 358°
2026-05-05 17:08 45.17665 -9.47123 35089 ft 384 kts 358°
2026-05-05 17:09 45.23010 -9.47167 35090 ft 385 kts 358°
2026-05-05 17:09 45.28375 -9.47213 35092 ft 385 kts 358°
2026-05-05 17:10 45.33692 -9.47258 35086 ft 384 kts 358°
2026-05-05 17:10 45.39045 -9.47304 35091 ft 386 kts 358°
2026-05-05 17:11 45.44406 -9.47350 35086 ft 384 kts 358°
2026-05-05 17:11 45.49761 -9.47396 35087 ft 385 kts 358°
2026-05-05 17:12 45.55137 -9.47442 35090 ft 385 kts 358°
2026-05-05 17:12 45.60492 -9.47489 35087 ft 385 kts 358°
2026-05-05 17:13 45.65864 -9.47535 35089 ft 387 kts 358°
2026-05-05 17:13 45.71238 -9.47581 35093 ft 385 kts 358°
2026-05-05 17:14 45.76562 -9.47627 35091 ft 386 kts 358°
2026-05-05 17:14 45.81943 -9.47674 35091 ft 388 kts 358°
2026-05-05 17:15 45.87279 -9.47719 35080 ft 379 kts 359°
2026-05-05 17:15 45.92593 -9.47767 35082 ft 384 kts 359°
2026-05-05 17:16 45.97921 -9.47813 35082 ft 382 kts 359°
2026-05-05 17:16 46.03256 -9.47860 35084 ft 385 kts 359°
2026-05-05 17:17 46.08603 -9.47906 35081 ft 383 kts 359°
2026-05-05 17:17 46.13932 -9.47954 35080 ft 384 kts 359°
2026-05-05 17:18 46.19287 -9.48001 35087 ft 384 kts 359°
2026-05-05 17:18 46.24591 -9.48047 35085 ft 384 kts 359°
2026-05-05 17:19 46.29940 -9.48095 35085 ft 385 kts 359°
2026-05-05 17:19 46.35293 -9.48143 35084 ft 384 kts 359°
2026-05-05 17:20 46.40632 -9.48190 35083 ft 384 kts 359°
2026-05-05 17:20 46.45984 -9.48237 35088 ft 385 kts 359°
2026-05-05 17:21 46.51340 -9.48284 35084 ft 384 kts 359°
2026-05-05 17:22 46.59331 -9.48356 35082 ft 386 kts 359°
2026-05-05 17:22 46.64724 -9.48405 35085 ft 387 kts 359°
2026-05-05 17:23 46.70102 -9.48453 35083 ft 385 kts 359°
2026-05-05 17:23 46.75476 -9.48501 35087 ft 387 kts 359°
2026-05-05 17:24 46.80866 -9.48549 35089 ft 386 kts 359°
2026-05-05 17:24 46.86228 -9.48598 35088 ft 389 kts 359°
2026-05-05 17:25 46.91634 -9.48647 35088 ft 387 kts 359°
2026-05-05 17:25 46.97019 -9.48695 35087 ft 387 kts 359°
2026-05-05 17:26 47.02438 -9.48744 35082 ft 390 kts 359°
2026-05-05 17:26 47.07863 -9.48794 35103 ft 389 kts 359°
2026-05-05 17:27 47.13219 -9.48843 35085 ft 383 kts 359°
2026-05-05 17:27 47.18584 -9.48891 35092 ft 387 kts 359°
2026-05-05 17:28 47.23944 -9.48941 35084 ft 389 kts 359°
2026-05-05 17:28 47.29363 -9.48991 35090 ft 388 kts 359°
2026-05-05 17:29 47.34755 -9.49040 35084 ft 388 kts 359°
2026-05-05 17:29 47.40179 -9.49090 35087 ft 389 kts 359°
2026-05-05 17:30 47.45583 -9.49140 35086 ft 389 kts 359°
2026-05-05 17:30 47.51021 -9.49190 35088 ft 390 kts 359°
2026-05-05 17:31 47.56418 -9.49241 35087 ft 389 kts 359°
2026-05-05 17:31 47.61838 -9.49290 35087 ft 390 kts 359°
2026-05-05 17:32 47.67301 -9.49341 35095 ft 394 kts 359°
2026-05-05 17:32 47.72767 -9.49392 35094 ft 391 kts 359°
2026-05-05 17:33 47.78225 -9.49443 35096 ft 392 kts 359°
2026-05-05 17:33 47.83704 -9.49494 35095 ft 392 kts 359°
2026-05-05 17:34 47.89177 -9.49546 35092 ft 395 kts 359°
2026-05-05 17:34 47.94634 -9.49597 35092 ft 393 kts 359°
2026-05-05 17:35 48.00109 -9.49648 35094 ft 394 kts 359°
2026-05-05 17:35 48.05604 -9.49700 35090 ft 395 kts 359°
2026-05-05 17:36 48.11108 -9.49753 35091 ft 396 kts 359°
2026-05-05 17:36 48.16615 -9.49805 35091 ft 395 kts 359°
2026-05-05 17:37 48.22109 -9.49856 35092 ft 395 kts 359°
2026-05-05 17:37 48.27576 -9.49909 35094 ft 396 kts 359°
2026-05-05 17:38 48.33101 -9.49962 35096 ft 397 kts 359°
2026-05-05 17:38 48.38624 -9.50014 35099 ft 396 kts 359°
2026-05-05 17:39 48.44139 -9.50067 35101 ft 396 kts 359°
2026-05-05 17:39 48.49656 -9.50120 35099 ft 396 kts 359°
2026-05-05 17:40 48.55187 -9.50173 35095 ft 396 kts 359°
2026-05-05 17:40 48.60676 -9.50226 35096 ft 397 kts 359°
2026-05-05 17:41 48.66194 -9.50276 35095 ft 396 kts 359°
2026-05-05 17:41 48.71709 -9.50254 35101 ft 398 kts 359°
2026-05-05 17:42 48.77243 -9.50261 35101 ft 397 kts 359°
2026-05-05 17:42 48.82770 -9.50255 35100 ft 397 kts 359°
2026-05-05 17:43 48.88308 -9.50254 35103 ft 398 kts 359°
2026-05-05 17:43 48.93843 -9.50252 35099 ft 399 kts 359°
2026-05-05 17:44 48.98442 -9.49840 35089 ft 400 kts 14°
2026-05-05 17:44 49.01020 -9.48231 35104 ft 403 kts 30°
2026-05-05 17:44 49.03232 -9.45588 35111 ft 406 kts 41°
2026-05-05 17:45 49.07296 -9.39585 35105 ft 406 kts 42°
2026-05-05 17:45 49.11359 -9.33638 35097 ft 406 kts 42°
2026-05-05 17:46 49.15443 -9.27635 35098 ft 407 kts 42°
2026-05-05 17:46 49.19527 -9.21617 35098 ft 408 kts 42°
2026-05-05 17:47 49.23613 -9.15585 35090 ft 407 kts 42°
2026-05-05 17:47 49.27687 -9.09552 35092 ft 408 kts 42°
2026-05-05 17:48 49.31768 -9.03499 35093 ft 408 kts 42°
2026-05-05 17:48 49.35833 -8.97450 35093 ft 408 kts 42°
2026-05-05 17:49 49.39886 -8.91408 35086 ft 407 kts 42°
2026-05-05 17:49 49.43960 -8.85318 35090 ft 410 kts 42°
2026-05-05 17:50 49.48046 -8.79195 35091 ft 409 kts 42°
2026-05-05 17:50 49.52119 -8.73077 35088 ft 410 kts 42°
2026-05-05 17:51 49.56197 -8.66936 35091 ft 409 kts 42°
2026-05-05 17:51 49.60267 -8.60793 35082 ft 409 kts 43°
2026-05-05 17:52 49.64308 -8.54678 35084 ft 410 kts 43°
2026-05-05 17:52 49.68377 -8.48505 35080 ft 411 kts 43°
2026-05-05 17:53 49.72458 -8.42298 35080 ft 411 kts 43°
2026-05-05 17:53 49.76522 -8.36103 35080 ft 410 kts 43°
2026-05-05 17:54 49.80593 -8.29882 35084 ft 412 kts 43°
2026-05-05 17:54 49.84634 -8.23688 35081 ft 410 kts 43°
2026-05-05 17:55 49.88688 -8.17464 35080 ft 411 kts 43°
2026-05-05 17:55 49.92739 -8.11222 35079 ft 411 kts 43°
2026-05-05 17:56 49.96815 -8.04932 35081 ft 413 kts 43°
2026-05-05 17:56 50.00560 -7.98263 35063 ft 413 kts 60°
2026-05-05 17:57 50.03112 -7.90190 35077 ft 417 kts 62°
2026-05-05 17:57 50.05668 -7.82116 35075 ft 414 kts 62°
2026-05-05 17:58 50.08213 -7.74035 35074 ft 414 kts 62°
2026-05-05 17:58 50.10739 -7.65991 35065 ft 413 kts 62°
2026-05-05 17:59 50.13265 -7.57927 35068 ft 415 kts 62°
2026-05-05 17:59 50.15769 -7.49900 35067 ft 413 kts 62°
2026-05-05 18:00 50.18274 -7.41847 35066 ft 414 kts 62°
2026-05-05 18:00 50.20800 -7.33701 35068 ft 418 kts 63°
2026-05-05 18:01 50.23307 -7.25583 35062 ft 413 kts 63°
2026-05-05 18:01 50.25815 -7.17445 35060 ft 416 kts 63°
2026-05-05 18:02 50.28315 -7.09294 35060 ft 414 kts 63°
2026-05-05 18:02 50.30811 -7.01139 35060 ft 416 kts 63°
2026-05-05 18:03 50.33285 -6.93020 35060 ft 415 kts 63°
2026-05-05 18:03 50.35746 -6.84922 35053 ft 408 kts 63°
2026-05-05 18:04 50.38193 -6.76851 35047 ft 412 kts 63°
2026-05-05 18:04 50.40637 -6.68749 35047 ft 410 kts 63°
2026-05-05 18:05 50.43078 -6.60641 35050 ft 411 kts 63°
2026-05-05 18:05 50.45509 -6.52528 35052 ft 411 kts 63°
2026-05-05 18:06 50.47938 -6.44406 35038 ft 410 kts 63°
2026-05-05 18:06 50.50351 -6.36302 35050 ft 413 kts 63°
2026-05-05 18:07 50.52777 -6.28130 35037 ft 411 kts 64°
2026-05-05 18:07 50.55194 -6.19964 35045 ft 413 kts 63°
2026-05-05 18:08 50.57606 -6.11780 35036 ft 412 kts 63°
2026-05-05 18:08 50.60014 -6.03583 35042 ft 411 kts 63°
2026-05-05 18:09 50.62377 -5.95520 35031 ft 407 kts 64°
2026-05-05 18:09 50.64748 -5.87393 35036 ft 408 kts 64°
2026-05-05 18:10 50.67116 -5.79250 35035 ft 408 kts 63°
2026-05-05 18:10 50.69480 -5.71099 35037 ft 408 kts 63°
2026-05-05 18:11 50.71834 -5.62950 35038 ft 408 kts 63°
2026-05-05 18:11 50.74182 -5.54794 35034 ft 407 kts 63°
2026-05-05 18:12 50.76528 -5.46618 35034 ft 410 kts 64°
2026-05-05 18:12 50.78856 -5.38479 35028 ft 409 kts 64°
2026-05-05 18:13 50.81190 -5.30284 35028 ft 409 kts 64°
2026-05-05 18:13 50.83526 -5.22063 35023 ft 409 kts 63°
2026-05-05 18:14 50.85853 -5.13838 35022 ft 409 kts 63°
2026-05-05 18:14 50.88171 -5.05628 35019 ft 409 kts 64°
2026-05-05 18:15 50.90487 -4.97375 35018 ft 409 kts 64°
2026-05-05 18:15 50.92799 -4.89134 35020 ft 409 kts 64°
2026-05-05 18:16 50.95087 -4.80922 35019 ft 409 kts 64°
2026-05-05 18:16 50.97389 -4.72651 35028 ft 409 kts 64°
2026-05-05 18:17 50.99681 -4.64370 35015 ft 409 kts 64°
2026-05-05 18:17 51.01967 -4.56095 35012 ft 409 kts 64°
2026-05-05 18:18 51.04245 -4.47845 35008 ft 409 kts 62°
2026-05-05 18:18 51.06762 -4.39730 35011 ft 409 kts 63°
2026-05-05 18:19 51.09231 -4.31569 34832 ft 412 kts 62°
2026-05-05 18:19 51.10500 -4.27511 34582 ft 406 kts 62°
2026-05-05 18:19 51.11731 -4.23483 34340 ft 405 kts 63°
2026-05-05 18:19 51.12956 -4.19427 34109 ft 408 kts 63°
2026-05-05 18:20 51.14189 -4.15371 33848 ft 405 kts 62°
2026-05-05 18:20 51.15415 -4.11366 33577 ft 401 kts 63°
2026-05-05 18:20 51.16631 -4.07371 33292 ft 402 kts 62°
2026-05-05 18:20 51.17848 -4.03347 33034 ft 403 kts 64°
2026-05-05 18:21 51.19062 -3.99330 32748 ft 401 kts 63°
2026-05-05 18:21 51.20275 -3.95323 32469 ft 400 kts 63°
2026-05-05 18:21 51.21476 -3.91342 32209 ft 399 kts 63°
2026-05-05 18:21 51.22683 -3.87333 31943 ft 400 kts 63°
2026-05-05 18:22 51.23868 -3.83393 31684 ft 398 kts 63°
2026-05-05 18:22 51.25065 -3.79409 31403 ft 400 kts 64°
2026-05-05 18:22 51.26275 -3.75375 31180 ft 404 kts 65°
2026-05-05 18:22 51.27495 -3.71293 30922 ft 401 kts 65°
2026-05-05 18:23 51.28688 -3.67293 30670 ft 395 kts 64°
2026-05-05 18:23 51.29858 -3.63376 30427 ft 394 kts 64°
2026-05-05 18:23 51.31035 -3.59424 30178 ft 395 kts 64°
2026-05-05 18:23 51.32218 -3.55445 29556 ft 398 kts 64°
2026-05-05 18:24 51.33394 -3.51481 28868 ft 391 kts 64°
2026-05-05 18:24 51.34544 -3.47595 28167 ft 383 kts 64°
2026-05-05 18:24 51.35679 -3.43762 27479 ft 389 kts 64°
2026-05-05 18:24 51.36924 -3.39549 26870 ft 436 kts 64°
2026-05-05 18:25 51.38203 -3.35208 26258 ft 424 kts 64°
2026-05-05 18:25 51.38625 -3.33773 26052 ft 421 kts 64°
2026-05-05 18:25 51.40707 -3.26690 25009 ft 420 kts 64°
2026-05-05 18:25 51.41924 -3.22538 24413 ft 414 kts 64°
2026-05-05 18:26 51.43138 -3.18388 23804 ft 409 kts 64°
2026-05-05 18:26 51.44342 -3.14271 23189 ft 407 kts 64°
2026-05-05 18:26 51.45551 -3.10125 22474 ft 401 kts 64°
2026-05-05 18:26 51.46704 -3.06166 21809 ft 395 kts 64°
2026-05-05 18:27 51.47856 -3.02205 21283 ft 389 kts 64°
2026-05-05 18:27 51.49001 -2.98259 20820 ft 390 kts 64°
2026-05-05 18:27 51.50140 -2.94328 20372 ft 386 kts 64°
2026-05-05 18:27 51.51264 -2.90444 19931 ft 381 kts 64°
2026-05-05 18:28 51.53496 -2.82703 19053 ft 380 kts 64°
2026-05-05 18:28 51.54595 -2.78891 18617 ft 376 kts 64°
2026-05-05 18:28 51.55697 -2.75059 18170 ft 377 kts 64°
2026-05-05 18:29 51.56783 -2.71270 17685 ft 370 kts 64°
2026-05-05 18:29 51.57862 -2.67502 17195 ft 372 kts 64°
2026-05-05 18:29 51.58937 -2.63745 16732 ft 366 kts 64°
2026-05-05 18:29 51.59994 -2.60041 16260 ft 365 kts 64°
2026-05-05 18:30 51.61038 -2.56385 15806 ft 363 kts 64°
2026-05-05 18:30 51.62082 -2.52717 15362 ft 359 kts 64°
2026-05-05 18:30 51.63121 -2.49059 15080 ft 358 kts 64°
2026-05-05 18:30 51.64150 -2.45434 14984 ft 356 kts 64°
2026-05-05 18:31 51.65190 -2.41767 14612 ft 359 kts 64°
2026-05-05 18:31 51.66222 -2.38121 14258 ft 355 kts 65°
2026-05-05 18:31 51.67239 -2.34514 13892 ft 354 kts 64°
2026-05-05 18:31 51.67915 -2.32118 13630 ft 354 kts 64°
2026-05-05 18:32 51.68922 -2.28545 13234 ft 347 kts 64°
2026-05-05 18:32 51.70244 -2.23847 12713 ft 342 kts 64°
2026-05-05 18:32 51.71201 -2.20434 12314 ft 332 kts 64°
2026-05-05 18:32 51.71842 -2.18148 12052 ft 331 kts 64°
2026-05-05 18:33 51.72787 -2.14772 11676 ft 328 kts 65°
2026-05-05 18:33 51.73373 -2.11270 11271 ft 325 kts 86°
2026-05-05 18:33 51.73192 -2.07638 10895 ft 326 kts 96°
2026-05-05 18:33 51.72867 -2.04023 10546 ft 318 kts 97°
2026-05-05 18:34 51.72574 -2.00796 10172 ft 263 kts 96°
2026-05-05 18:34 51.72358 -1.98273 9846 ft 197 kts 95°
2026-05-05 18:34 51.72180 -1.96145 8568 ft 189 kts 96°
2026-05-05 18:34 51.72011 -1.94116 7367 ft 179 kts 96°
2026-05-05 18:35 51.71845 -1.92170 6156 ft 170 kts 97°
2026-05-05 18:35 51.71683 -1.90322 4936 ft 165 kts 95°
2026-05-05 18:35 51.71512 -1.88243 3739 ft 209 kts 94°
2026-05-05 18:35 51.71302 -1.85774 2773 ft 232 kts 95°
2026-05-05 18:36 51.71087 -1.83262 2422 ft 222 kts 92°
2026-05-05 18:36 51.71194 -1.80839 2078 ft 209 kts 75°
2026-05-05 18:36 51.71481 -1.78683 2111 ft 182 kts 74°
2026-05-05 18:36 51.71710 -1.76841 2146 ft 151 kts 75°
2026-05-05 18:37 51.71887 -1.75312 2132 ft 140 kts 74°
2026-05-05 18:37 51.72093 -1.73669 2060 ft 157 kts 73°
2026-05-05 18:37 51.72366 -1.71907 1935 ft 166 kts 71°
2026-05-05 18:37 51.72689 -1.70066 1784 ft 178 kts 70°
2026-05-05 18:38 51.73065 -1.68102 1425 ft 184 kts 69°
2026-05-05 18:38 51.73478 -1.66219 1122 ft 171 kts 67°
2026-05-05 18:38 51.73843 -1.64489 843 ft 154 kts 69°
2026-05-05 18:38 51.74136 -1.62899 639 ft 145 kts 71°
2026-05-05 18:39 51.74420 -1.61392 413 ft 136 kts 68°
2026-05-05 18:39 51.74687 -1.59967 273 ft 124 kts 72°
2026-05-05 18:39 51.74897 -1.58829 263 ft 86 kts 73°
2026-05-05 18:39 51.75022 -1.58172 261 ft 37 kts 73°
2026-05-05 18:40 51.75122 -1.57627 262 ft 63 kts 73°
2026-05-05 18:40 51.75229 -1.57031 259 ft 46 kts 73°
2026-05-05 18:40 51.75300 -1.56715 260 ft 18 kts 37°
2026-05-05 18:40 51.75419 -1.56737 261 ft 18 kts 343°
2026-05-05 18:41 51.75541 -1.56794 262 ft 18 kts 344°
2026-05-05 18:41 51.75662 -1.56852 261 ft 18 kts 344°
2026-05-05 18:41 51.75779 -1.56918 261 ft 18 kts 331°
2026-05-05 18:41 51.75865 -1.57054 261 ft 18 kts 304°
2026-05-05 18:42 51.75915 -1.57233 261 ft 13 kts 282°
2026-05-05 18:42 51.75933 -1.57384 261 ft 14 kts 279°
2026-05-05 18:42 51.75891 -1.57521 261 ft 17 kts 201°
2026-05-05 18:42 51.75772 -1.57583 261 ft 17 kts 191°
2026-05-05 18:43 51.75737 -1.57526 261 ft 11 kts 102°
2026-05-05 18:43 51.75727 -1.57468 263 ft 1 kts 108°
2026-05-05 18:43 51.75726 -1.57467 262 ft 0 kts 108°